Home > Weather > Mason > Past weeks

Flag for USA Weather for the Past 2 Weeks in Mason, Ohio, USA

Now
62 °F

Light rain. Low clouds.


Feels Like: 62 °F
Forecast: 59 / 74 °F
Wind: 3 mph from North

Location: Butler County Regional Airport

Current Time: May 1, 2016 at 2:15:25 AM

Latest Report: May 1, 2016 at 12:53 AM


Visibility: 9 mi

Pressure: 29.90 "Hg

Humidity: 93%

Dew Point: 60 °F

Location of MasonLocation

Historic Weather in Mason — Graph

°F

Mason Temperature Yesterday

Maximum temperature yesterday: 61 °F (at 11:53 PM)
Minimum temperature yesterday: 53 °F (at 2:53 AM)
Average temperature yesterday: 56 °F

High & Low Weather Summary for the Past Weeks

 TemperatureHumidityPressure
High84 °F (Apr 18, 4:53 PM)100% (Apr 28, 8:53 AM)30.42 "Hg (Apr 28, 8:53 AM)
Low41 °F (Apr 24, 3:53 AM)21% (Apr 18, 4:53 PM)29.72 "Hg (Apr 26, 7:53 PM)
Average62 °F69%30.03 "Hg
* Reported Apr 16 12:53 AM — May 1 12:53 AM, Mason, Weather by CustomWeather, © 2016

Note: Actual official high and low records may vary slightly from our data, if they occured in-between our weather recording intervals... More about our weather records

Advertising

Mason Weather History for the Previous 24 Hours

Scroll right to see more
 ConditionsComfort  
Time TempWeatherWind HumidityBarometerVisibility
12:53 AM
Sun, May 1
62 °FLight rain. Low clouds.3 mph93%29.90 "Hg9 mi
11:53 PM
Sat, Apr 30
61 °FLow clouds.3 mph93%29.90 "Hg7 mi
10:53 PM60 °FLight rain. Low clouds.3 mph96%29.90 "Hg7 mi
9:53 PM60 °FLight rain. Fog.3 mph93%29.91 "Hg4 mi
8:53 PM59 °FMostly cloudy.3 mph96%29.91 "Hg7 mi
7:53 PM60 °FLight rain. Fog.3 mph93%29.93 "Hg3 mi
6:53 PM60 °FLight rain. Overcast.3 mph93%29.93 "Hg8 mi
5:53 PM60 °FLight rain. Overcast.No wind90%29.94 "Hg9 mi
4:53 PM59 °FOvercast.6 mph90%29.92 "Hg10 mi
3:53 PM58 °FLight rain. Mostly cloudy.8 mph93%29.94 "Hg7 mi
2:53 PM56 °FLight rain. Fog.8 mph93%29.98 "Hg4 mi
1:53 PM55 °FLight rain. Fog.8 mph93%30.00 "Hg4 mi
12:53 PM54 °FLight rain. Fog.9 mph93%30.04 "Hg5 mi
11:53 AM53 °FRain. Fog.No wind89%30.08 "Hg3 mi
10:53 AM53 °FLight rain. Fog.6 mph86%30.05 "Hg5 mi
9:53 AM53 °FOvercast.8 mph83%30.03 "Hg9 mi
8:53 AM53 °FOvercast.8 mph77%30.03 "Hg10 mi
7:53 AM53 °FOvercast.6 mph74%30.05 "Hg10 mi
6:53 AM53 °FOvercast.8 mph74%30.04 "Hg10 mi
5:53 AM53 °FOvercast.8 mph74%30.05 "Hg10 mi
4:53 AM53 °FOvercast.8 mph72%30.06 "Hg10 mi
3:53 AM53 °FOvercast.10 mph74%30.04 "Hg10 mi
2:53 AM53 °FOvercast.10 mph77%30.04 "Hg10 mi
Weather by CustomWeather, © 2016

See weather overviewHow to use our weather pages